CYGNUS NG-19

Last updated on Wed Jan 10 2024 00:02:06 GMT+0000 (Coordinated Universal Time)

1 57488U 23110A 24009.44185305 .00021942 00000+0 31414-3 0 9997 2 57488 51.6443 26.0643 0002674 83.4696 276.6600 15.56114269 24893
UTC large
Height (km)
Speed (km/s)
/
Latitude / Longitude
Inclination (degrees)
Orbital Period (minutes)
Azimuth
Elevation
Range (km)
Doppler Factor

Next 0 passes for location: London (51.5072 / 0.1276)

Sorry there are no passes over London.